User: anonymous   Login
Location: Blanot
(47.1713°N, 4.2340°E)
Time: 22:15:22
(UTC+00:00)
Language:

Cosmos 1908 Rocket - Orbit

View from above orbital plane
View from above orbital plane
View from above satellite
View from above satellite

Ground track
Ground track

The orbit data is extracted from the following two-line orbital elements,

1 18749U 88001B   20272.51309377 +.00000099 +00000-0 +91625-5 0  9990
2 18749 082.5114 261.0511 0017765 322.6129 155.7874 14.83227726747141
Epoch (UTC): 28 September 2020 12:18:51
Eccentricity: 0.0017765
inclination: 82.5114°
perigee height: 607 km
apogee height: 631 km
right ascension of ascending node: 261.0511°
argument of perigee: 322.6129°
revolutions per day: 14.83227726
mean anomaly at epoch: 155.7874°
orbit number at epoch: 74714

The dashed part of the orbit path shows where the satellite is in the earth's shadow,  

DLR